Location: Unspecified
(49.2170°N, 0.0000°E)
Time: 04:25:02
(UTC+00:00)

Transit 2A - Pass Details

Date: 20 June 2019
Orbit: 595 x 964 km, 66.7° (Epoch: 22 July)

Event Time Altitude Azimuth Distance (km) Brightness Sun altitude
Rises 03:17:11 0° 264° (W) 3,649 9.0 -5.3°
Reaches altitude 10° 03:20:19 10° 278° (W) 2,697 8.5 -5.0°
Maximum altitude 03:25:22 24° 331° (NNW) 1,834 8.2 -4.4°
Drops below altitude 10° 03:30:17 10° 24° (NNE) 2,599 10.1 -3.8°
Sets 03:33:14 0° 38° (NE) 3,487 11.8 -3.4°
